Location: Columbia
(38.9520°N, 92.3340°W)
Time: 08:45:42
(UTC-05:00)

Iridium 22 - Visible Passes

Search period start: 23 October 2014 00:00
Search period end: 02 November 2014 00:00
Orbit: 776 x 779 km, 86.4° (Epoch: 22 October)

Date Brightness Start Highest point End Pass type
(mag) Time Alt. Az. Time Alt. Az. Time Alt. Az.
23 Oct 7.6 05:57:31 10° NNE 06:02:02 29° E 06:06:32 10° SE visible
23 Oct 5.5 18:52:26 10° S 18:57:34 64° E 19:02:43 10° N visible
23 Oct 8.6 20:36:13 10° WSW 20:38:45 14° WNW 20:41:18 10° NW visible
24 Oct 8.5 05:25:04 10° NE 05:28:14 16° ENE 05:31:23 10° ESE visible
24 Oct 7.8 20:00:41 10° SW 20:04:55 25° W 20:09:11 10° NNW visible
25 Oct 5.7 06:30:36 10° N 06:35:50 80° E 06:41:02 10° S visible
25 Oct 6.7 19:26:14 10° SSW 19:31:13 46° W 19:36:13 10° N visible
26 Oct 6.8 05:57:17 10° NNE 06:02:14 42° E 06:07:09 10° SSE visible
26 Oct 5.6 18:52:26 10° S 18:57:38 87° W 19:02:52 10° N visible
27 Oct 7.9 05:24:24 10° NNE 05:28:31 23° ENE 05:32:36 10° SE visible
27 Oct 8.4 20:01:47 10° WSW 20:05:11 17° WNW 20:08:36 10° NW visible
28 Oct 8.6 04:52:31 10° NE 04:54:39 12° ENE 04:56:47 10° E visible
28 Oct 5.5 06:30:43 10° N 06:35:54 70° W 06:41:04 10° S visible
28 Oct 7.5 19:26:47 10° SW 19:31:23 32° W 19:36:02 10° NNW visible
29 Oct 6.0 05:57:12 10° N 06:02:23 63° E 06:07:31 10° SSE visible
29 Oct 6.2 18:52:37 10° SSW 18:57:44 60° W 19:02:53 10° N visible
30 Oct 7.2 05:24:02 10° NNE 05:28:44 33° E 05:33:24 10° SE visible
30 Oct 6.5 07:05:02 10° NNW 07:09:15 26° W 07:13:28 10° SW visible
30 Oct 8.7 20:03:39 10° W 20:05:29 12° WNW 20:07:20 10° NW visible
31 Oct 8.1 04:51:24 10° NNE 04:54:57 18° ENE 04:58:29 10° ESE visible
31 Oct 5.7 06:30:57 10° NNW 06:35:56 47° W 06:40:53 10° SSW visible
31 Oct 8.1 19:27:37 10° SW 19:31:37 22° WNW 19:35:38 10° NNW visible
01 Nov 5.5 05:57:14 10° N 06:02:29 89° W 06:07:41 10° S visible
01 Nov 7.0 18:53:01 10° SSW 18:57:53 40° W 19:02:47 10° NNW visible
